Location: Praha
(50.0830°N, 14.4670°E)
Time: 08:19:36
(UTC+01:00)

ISS - Visible Passes

Search period start: 17 February 2020 00:00
Search period end: 27 February 2020 00:00
Orbit: 416 x 423 km, 51.6° (Epoch: 17 February)

Date Brightness Start Highest point End Pass type
(mag) Time Alt. Az. Time Alt. Az. Time Alt. Az.
21 Feb -0.6 05:57:26 10° SSE 05:58:38 11° SE 05:59:49 10° ESE visible
23 Feb -1.6 05:56:58 10° SSW 05:59:47 25° SE 06:02:37 10° E visible
24 Feb -1.2 05:10:02 10° S 05:12:19 17° SE 05:14:36 10° E visible
25 Feb -0.8 04:24:27 11° SE 04:24:54 11° SE 04:26:03 10° ESE visible
25 Feb -3.0 05:57:47 10° SW 06:01:04 49° SSE 06:04:22 10° ENE visible
26 Feb -2.5 05:11:56 22° SSW 05:13:30 35° SSE 05:16:38 10° E visible
